Location: ??
(35.5138°N, 139.6953°E)
Time: 07:58:57
(UTC+00:00)

ASTRO E2 - Pass Details

Date: 07 June 2020
Orbit: 510 x 516 km, 31.4° (Epoch: 05 July)

Event Time Altitude Azimuth Distance (km) Brightness Sun altitude
Rises 10:25:34 0° 267° (W) 2,602 7.2 -6.2°
Reaches altitude 10° 10:27:56 10° 258° (WSW) 1,716 6.0 -6.6°
Maximum altitude 10:31:32 34° 192° (SSW) 839 3.6 -7.2°
Drops below altitude 10° 10:35:08 10° 126° (SE) 1,713 4.6 -7.8°
Enters shadow 10:35:08 10° 126° (SE) 1,714 4.6 -7.8°
